GW3546 Weather Reports


time (UTC)temp
C
wind
direction
speed
KPH
gust
KPH
rain 1hr
cm
rain 24hr
cm
rain mn
cm
humidity
%
barometer
mb
20260504081517 5 9 51.5 67.6 0.00 0.03 0.00 70 1004.2
20260504044536 10 25 53.1 70.8 0.00 0.00 0.00 42 1000.5
20260504043044 10 21 53.1 69.2 0.00 0.00 0.00 44 1000.3
20260504041534 11 344 38.6 67.6 0.00 0.00 0.00 43 1000.4
20260504040029 12 355 32.2 43.5 0.00 0.00 0.00 41 999.9
20260504034529 12 11 32.2 41.8 0.00 0.00 0.00 39 999.6
20260504033029 12 335 35.4 49.9 0.00 0.00 0.00 38 999.4
20260504031528 13 18 33.8 48.3 0.00 0.00 0.00 39 999.2
20260504030034 13 21 32.2 46.7 0.00 0.00 0.00 39 999.1
20260504024528 13 9 29.0 40.2 0.00 0.00 0.00 39 999.0
20260504023026 14 23 32.2 46.7 0.00 0.00 0.00 39 999.0
20260504021524 15 34 38.6 46.7 0.00 0.00 0.00 36 999.0
20260504020034 16 17 20.9 33.8 0.00 0.00 0.00 31 999.0
20260504014522 17 360 16.1 22.5 0.00 0.00 0.00 29 999.1
20260504013025 17 341 19.3 29.0 0.00 0.00 0.00 25 999.2
20260504011522 18 338 27.4 35.4 0.00 0.00 0.00 23 999.1
20260504010021 19 360 20.9 33.8 0.00 0.00 0.00 22 999.2
20260504004534 19 320 24.1 38.6 0.00 0.00 0.00 23 999.3
20260504003018 19 344 25.7 38.6 0.00 0.00 0.00 22 999.3
20260504001529 19 324 19.3 33.8 0.00 0.00 0.00 22 999.4
20260504000014 19 322 33.8 48.3 0.00 0.00 0.00 23 999.7
20260503234518 20 360 25.7 41.8 0.00 0.00 0.00 22 999.6
20260503233013 20 312 32.2 38.6 0.00 0.00 0.00 23 999.7
20260503231513 20 341 29.0 40.2 0.00 0.00 0.00 23 999.9
20260503230010 19 322 25.7 45.1 0.00 0.00 0.00 22 1000.1
20260503224508 19 355 33.8 48.3 0.00 0.00 0.00 22 1000.1
20260503223009 19 338 35.4 46.7 0.00 0.00 0.00 22 1000.1
20260503221505 20 317 29.0 41.8 0.00 0.00 0.00 23 1000.4
20260503220016 19 329 35.4 45.1 0.00 0.00 0.00 23 1000.5
20260503214510 19 346 27.4 49.9 0.00 0.00 0.00 23 1000.7
20260503213002 19 325 25.7 45.1 0.00 0.00 0.00 24 1001.2
20260503211602 19 337 25.7 37.0 0.00 0.00 0.00 24 1001.2
20260503210057 18 340 25.7 38.6 0.00 0.00 0.00 23 1001.5
20260503204555 18 342 29.0 54.7 0.00 0.00 0.00 23 1001.8
20260503203057 18 311 27.4 37.0 0.00 0.00 0.00 24 1001.9
20260503201552 17 313 20.9 48.3 0.00 0.00 0.00 25 1002.1
20260503200052 17 305 25.7 41.8 0.00 0.00 0.00 24 1002.4
20260503194558 17 331 35.4 46.7 0.00 0.00 0.00 26 1002.9
20260503193044 17 320 30.6 45.1 0.00 0.00 0.00 26 1002.9
20260503191542 17 319 22.5 49.9 0.00 0.00 0.00 27 1003.2
20260503190045 17 291 29.0 40.2 0.00 0.00 0.00 28 1003.3
20260503184542 16 295 22.5 40.2 0.00 0.00 0.00 29 1003.5
20260503183042 16 342 16.1 35.4 0.00 0.00 0.00 30 1003.7
20260503181554 16 336 25.7 33.8 0.00 0.00 0.00 27 1003.7
20260503180138 16 347 17.7 32.2 0.00 0.00 0.00 30 1003.9
20260503174532 16 13 20.9 35.4 0.00 0.00 0.00 28 1004.2
20260503173031 16 331 25.7 33.8 0.00 0.00 0.00 28 1004.4
20260503171530 15 355 27.4 41.8 0.00 0.00 0.00 29 1004.5